STARLINK-5672, 55468

Orbit data source: Space-Track

STARLINK-5672, 55468 is a payload satellite owned by SpaceX/Seattle (US) in LEO that was launched on Thu, 02 Feb 2023 UTC via an FALCON 9 launch vehicle from the Air Force Eastern Test Range (AFETR). Payload-class satellites include a variety of spacecraft equipped with specific instruments for various scientific and technological missions. These include communications satellites like Starlink; space stations such as the ISS; scientific satellites like the Hubble; Earth observation satellites from companies like Planet Labs, Umbra, and HawkEye 360; GPS; miniature CubeSats for education and research; and military/defense satellites.

Loading next visibility...
Identifier
55468, 2023-015V
Orbit
LEO
Country
Flag of USUS
Related business
Manufacturer
SpaceX/Seattle
Mission
Operational Commercial Communications
Bus & Motor
STARLINK, Unknown motor
Mass
305 kg wet, ~290 kg dry
Launch date (UTC)
2023-02-02 (3 years ago)
Launch vehicle
FALCON 9
Launch site
Air Force Eastern Test Range (AFETR)
Object type
Payload
Rocket body
Debris
Shape & HBR
Box + 1 Pan, 10.1 m
Radar Cross Section
13.562 m², Large (>1 m²)

Expand to show TLE details & history
Last TLE update: 15 hours ago

TLE from 15 hours ago
0 STARLINK-5672
1 55468U 23015V   25302.31409053  .00000492  00000-0  51485-4 0  9998
2 55468  43.0046 319.6791 0001235 267.5722  92.4979 15.02537973150991
Epoch: 2025-10-29T07:32Z
TLE epoch observation values (Epoch: 2025-10-29T07:32:17.421Z)
Latitude
-0.00003°
Longitude
168.71747°
Altitude
558.889 km
Speed
7.584 km/s
True Right ascension
21h 18m 42s
True Declination
0° 00' 00"
Sunlit
Object was in daylight at epoch
Visualization orbit readout
Latitude
Unknown
Longitude
Unknown
Altitude
Unknown
Speed
Unknown
Apparent Right ascension
Unknown
Apparent Declination
Unknown
Sunlit
N/A
Visualization observer readout
Local Sidereal Time
18:31:02
Azimuth
Unknown
Elevation
Unknown
Doppler factor
Unknown
Orbital elements
Apogee altitude
561.854 km
Perigee altitude
560.14 km
Semi-major axis
6,939.134 km
Eccentricity
0.00012
Inclination
43.0046°
RAAN
319.6791°
Arg. of periapsis
267.5722°
True anomaly
92.51204°
Mean anomaly
92.4979°
Eccentric anomaly
92.50497°
Mean motion
3.75479 °/min
Orbital period
95.88 mins
BSTAR
0.000051485
Loading maneuver chart data...
Computing Atmospheric mass density...
Loading historical data...
Loading historical data...
Loading historical data...
Loading historical data...
Loading historical data...
Loading historical data...
Loading historical data...

Documentation

Showing up to 5 results
|